North Adams, MA

10:14 AM EST on December 17, 2017 (GMT -0500)
Harriman And West

Weather History for KAQW - January, 2014

Change the Weather History Date:

Tuesday, January 28, 2014

  Actual Average Record
Temperature  
Mean Temperature 8 °F -  
Max Temperature 12 °F 29 °F 55 °F (2002)
Min Temperature 5 °F 11 °F -13 °F (2003)
Degree Days  
Heating Degree Days 56    
Moisture  
Dew Point -9 °F    
Average Humidity 46    
Maximum Humidity 70    
Minimum Humidity 35    
Precipitation  
Precipitation 0.00 in - - ()
Sea Level Pressure  
Sea Level Pressure 30.24 in    
Wind  
Wind Speed 8 mph (West)    
Max Wind Speed 17 mph    
Max Gust Speed 25 mph    
Visibility 10 miles    
Events      
Averages and records for this station are not official NWS values.
T = Trace of Precipitation, MM = Missing Value Source: NWS Daily Summary

Daily Weather History Graph

Daily Weather History Graph

Search for Another Location

Airport or City:

Trip Planner

Search our weather history database for the weather conditions in past years. The results will help you decide how hot, cold, wet, or windy it might be!

Date:

Astronomy

Jan. 28, 2014 Rise Set
Actual Time 7:11 AM EST 5:00 PM EST
Civil Twilight 6:40 AM EST 5:31 PM EST
Nautical Twilight 6:06 AM EST 6:05 PM EST
Astronomical Twilight 5:33 AM EST 6:38 PM EST
Moon 4:50 AM EST (1/28) 2:47 PM EST (1/28)
Length of Visible Light 10h 50m
Length of Day
9h 49m
Waning Crescent, 7% of the Moon is Illuminated
Jan 28
Waning Crescent
Jan 30
New
Feb 6
First Quarter
Feb 14
Full
Feb 22
Last Quarter

Hourly Weather History & Observations

Time (EST) Temp. Windchill Dew Point Humidity Pressure Visibility Wind Dir Wind Speed Gust Speed Precip Events Conditions
12:52 AM 10.0 °F 0.4 °F -7.1 °F 46% 30.06 in 10.0 mi WNW 5.8 mph - N/A   Overcast
1:52 AM 8.1 °F -7.7 °F -9.9 °F 44% 30.08 in 10.0 mi West 12.7 mph 17.3 mph N/A   Clear
2:52 AM 7.0 °F -6.6 °F -11.0 °F 44% 30.11 in 10.0 mi West 9.2 mph - N/A   Clear
3:52 AM 7.0 °F -11.0 °F -11.9 °F 42% 30.14 in 10.0 mi West 16.1 mph 24.2 mph N/A   Clear
4:52 AM 6.1 °F -12.8 °F -13.0 °F 41% 30.16 in 10.0 mi West 17.3 mph 20.7 mph N/A   Clear
5:52 AM 5.0 °F -12.3 °F -15.0 °F 39% 30.19 in 10.0 mi West 13.8 mph - N/A   Clear
6:52 AM 5.0 °F -14.2 °F -17.0 °F 36% 30.24 in 10.0 mi West 17.3 mph 25.3 mph N/A   Clear
7:52 AM 5.0 °F -5.6 °F -16.1 °F 37% 30.27 in 10.0 mi West 5.8 mph - N/A   Clear
8:52 AM 7.0 °F -6.6 °F -14.1 °F 38% 30.29 in 10.0 mi West 9.2 mph - N/A   Clear
9:52 AM 9.0 °F -6.6 °F -11.0 °F 40% 30.30 in 10.0 mi West 12.7 mph - N/A   Clear
10:52 AM 10.0 °F -5.2 °F -11.0 °F 38% 30.32 in 10.0 mi West 12.7 mph 18.4 mph N/A   Clear
11:52 AM 10.9 °F 1.4 °F -9.9 °F 39% 30.31 in 10.0 mi West 5.8 mph - N/A   Clear
12:52 PM 12.0 °F 2.7 °F -9.9 °F 37% 30.29 in 10.0 mi Variable 5.8 mph - N/A   Clear
1:52 PM 12.0 °F 4.1 °F -9.9 °F 37% 30.27 in 10.0 mi Variable 4.6 mph - N/A   Clear
2:52 PM 12.9 °F 0.7 °F -9.9 °F 35% 30.26 in 10.0 mi West 9.2 mph - N/A   Clear
3:52 PM 12.9 °F - -8.0 °F 39% 30.27 in 10.0 mi Calm Calm - N/A   Clear
4:52 PM 12.0 °F 5.9 °F -9.0 °F 39% 30.29 in 10.0 mi West 3.5 mph - N/A   Clear
5:52 PM 8.1 °F - -6.0 °F 53% 30.29 in 10.0 mi Calm Calm - N/A   Clear
6:52 PM 8.1 °F - -2.9 °F 61% 30.30 in 10.0 mi Calm Calm - N/A   Clear
7:52 PM 8.1 °F - -4.0 °F 58% 30.28 in 10.0 mi Calm Calm - N/A   Clear
8:52 PM 8.1 °F - -2.0 °F 64% 30.28 in 10.0 mi Calm Calm - N/A   Clear
9:52 PM 9.0 °F - -2.0 °F 61% 30.26 in 10.0 mi Calm Calm - N/A   Clear
10:52 PM 7.0 °F - -0.9 °F 70% 30.23 in 10.0 mi Calm Calm - N/A   Clear
11:52 PM 8.1 °F - -0.9 °F 67% 30.22 in 10.0 mi Calm Calm - N/A   Partly Cloudy